Change the Weather History Date:

Monday, January 26, 2015

  Actual Average Record
Temperature  
Mean Temperature 74 °F 73 °F  
Max Temperature 81 °F 80 °F 86 °F (1959)
Min Temperature 67 °F 66 °F 55 °F (1969)
Degree Days  
Heating Degree Days 0 0  
Month to date heating degree days 0 0  
Since 1 July heating degree days 0 0  
Cooling Degree Days 9 8  
Month to date cooling degree days 185 210  
Year to date cooling degree days 185 210  
Growing Degree Days 24 (Base 50)    
Moisture  
Dew Point 60 °F    
Average Humidity 63    
Maximum Humidity 81    
Minimum Humidity 45    
Precipitation  
Precipitation 0.00 in 0.06 in 0.95 in (1918)
Month to date precipitation 0.86 2.00  
Year to date precipitation 0.86 2.00  
Snow  
Snow 0.00 in - - ()
Month to date snowfall 0.0  
Since 1 July snowfall 0.0  
Snow Depth 0.00 in    
Sea Level Pressure  
Sea Level Pressure 29.95 in    
Wind  
Wind Speed 11 mph (NE)    
Max Wind Speed 24 mph    
Max Gust Speed 29 mph    
Visibility 10 miles    
Events      
T = Trace of Precipitation, MM = Missing Value Source: NWS Daily Summary

Daily Weather History Graph

Daily Weather History Graph

Search for Another Location

Airport or City:

Trip Planner

Search our weather history database for the weather conditions in past years. The results will help you decide how hot, cold, wet, or windy it might be!

Date:

Astronomy

Jan. 26, 2015 Rise Set
Actual Time 7:10 AM HST 6:18 PM HST
Civil Twilight 6:47 AM HST 6:41 PM HST
Nautical Twilight 6:20 AM HST 7:08 PM HST
Astronomical Twilight 5:53 AM HST 7:34 PM HST
Moon 11:56 AM HST (1/26) 12:02 AM HST (1/26)
Length of Visible Light 11h 54m
Length of Day
11h 07m
Waxing Crescent, 47% of the Moon is Illuminated
Jan 26
Waxing Crescent
Jan 26
First Quarter
Feb 3
Full
Feb 11
Last Quarter
Feb 18
New

Hourly Weather History & Observations

Time (HST) Temp. Heat Index Dew Point Humidity Pressure Visibility Wind Dir Wind Speed Gust Speed Precip Events Conditions
12:53 AM 70.0 °F - 61.0 °F 73% 29.98 in 10.0 mi North 6.9 mph - N/A   Partly Cloudy
1:53 AM 70.0 °F - 61.0 °F 73% 29.96 in 10.0 mi North 5.8 mph - N/A   Partly Cloudy
2:53 AM 70.0 °F - 62.1 °F 76% 29.94 in 10.0 mi North 6.9 mph - N/A   Partly Cloudy
3:53 AM 70.0 °F - 62.1 °F 76% 29.93 in 10.0 mi NNE 15.0 mph 20.7 mph N/A   Partly Cloudy
4:53 AM 69.1 °F - 62.1 °F 78% 29.91 in 10.0 mi NNE 11.5 mph - N/A   Partly Cloudy
5:53 AM 69.1 °F - 61.0 °F 75% 29.91 in 10.0 mi NNW 9.2 mph - N/A   Partly Cloudy
6:53 AM 70.0 °F - 61.0 °F 73% 29.93 in 10.0 mi NNE 10.4 mph - N/A   Scattered Clouds
7:53 AM 71.1 °F - 61.0 °F 70% 29.95 in 10.0 mi NE 9.2 mph 18.4 mph N/A   Scattered Clouds
8:53 AM 73.9 °F - 61.0 °F 64% 29.96 in 10.0 mi NE 12.7 mph 20.7 mph N/A   Scattered Clouds
9:53 AM 75.9 °F - 61.0 °F 60% 29.98 in 10.0 mi ENE 15.0 mph 21.9 mph N/A   Scattered Clouds
10:53 AM 78.1 °F - 60.1 °F 54% 29.98 in 10.0 mi NE 17.3 mph 24.2 mph N/A   Scattered Clouds
11:53 AM 79.0 °F - 59.0 °F 50% 29.96 in 10.0 mi ENE 15.0 mph 27.6 mph N/A   Scattered Clouds
12:53 PM 79.0 °F - 57.9 °F 48% 29.94 in 10.0 mi NE 13.8 mph 23.0 mph N/A   Scattered Clouds
1:53 PM 80.1 °F 80.4 °F 57.0 °F 45% 29.92 in 10.0 mi ENE 17.3 mph 25.3 mph N/A   Scattered Clouds
2:53 PM 80.1 °F 80.6 °F 57.9 °F 47% 29.90 in 10.0 mi ENE 19.6 mph 24.2 mph N/A   Scattered Clouds
3:53 PM 78.1 °F - 57.9 °F 50% 29.90 in 10.0 mi ENE 19.6 mph 26.5 mph N/A   Scattered Clouds
4:53 PM 77.0 °F - 57.9 °F 52% 29.91 in 10.0 mi ENE 16.1 mph 25.3 mph N/A   Scattered Clouds
5:53 PM 75.0 °F - 59.0 °F 57% 29.92 in 10.0 mi ENE 13.8 mph 27.6 mph N/A   Scattered Clouds
6:53 PM 73.0 °F - 57.9 °F 59% 29.94 in 10.0 mi ENE 13.8 mph - N/A   Scattered Clouds
7:53 PM 72.0 °F - 59.0 °F 64% 29.97 in 10.0 mi NE 8.1 mph - N/A   Partly Cloudy
8:53 PM 71.1 °F - 59.0 °F 66% 29.99 in 10.0 mi NE 4.6 mph - N/A   Partly Cloudy
9:53 PM 71.1 °F - 59.0 °F 66% 29.99 in 10.0 mi NNE 8.1 mph - N/A   Partly Cloudy
10:53 PM 66.9 °F - 60.1 °F 79% 29.99 in 10.0 mi Calm Calm - N/A   Partly Cloudy
11:53 PM 70.0 °F - 59.0 °F 68% 29.98 in 10.0 mi NNE 3.5 mph - N/A   Partly Cloudy